Terug naar catalogus

FREGAT R/B

LostHEO
NORAD 44454·ROCKET BODY·🇷🇺 Russia

Gelanceerd Jul 30, 2019 vanaf Plesetsk Cosmodrome

Loading…

Volgende Passages (komende 24 uur)

TLE

VerouderdSource: Space-Track

Epoch: Aug 27, 2025, 19:08 UTC

1 44454U 19046B   25239.79772573  .00000594  00000-0  00000-0 0  9997
2 44454  63.0712  74.5954 7079556 276.4920  14.2031  2.00663237 44553

Volg FREGAT R/B in realtime met AllMySat

Download on the App Store